Location: Gleizolles
(44.4833°N, 6.7667°E)
Time: 20:33:34
(UTC+00:00)

Vanguard 2 - Visible Passes

Search period start: 25 June 2024 00:00
Search period end: 05 July 2024 00:00
Orbit: 552 x 2914 km, 32.9° (Epoch: 24 June)

Date Brightness Start Highest point End Pass type
(mag) Time Alt. Az. Time Alt. Az. Time Alt. Az.
25 Jun 10.9 02:22:28 10° S 02:31:32 23° SE 02:42:44 10° E visible
26 Jun 10.8 02:35:11 10° SSW 02:45:03 28° SE 02:57:45 10° E visible
27 Jun 10.7 02:48:16 10° SSW 02:58:39 33° SE 03:12:26 10° E visible
28 Jun 10.8 00:59:50 10° SSE 01:04:40 14° SE 01:10:30 10° ESE visible
28 Jun 10.6 03:01:36 10° SSW 03:12:21 38° SSE 03:26:56 10° E visible
29 Jun 10.6 01:13:03 14° SSE 01:18:04 18° SE 01:26:31 10° E visible
30 Jun 10.4 01:26:16 16° S 01:31:33 23° SE 01:41:42 10° E visible
01 Jul 10.2 01:39:28 18° S 01:45:07 28° SE 01:56:29 10° E visible
02 Jul 10.1 01:52:40 19° SSW 01:58:46 33° SSE 02:11:02 10° E visible
03 Jul 10.5 00:04:45 13° SE 00:05:18 13° SE 00:09:56 10° ESE visible
03 Jul 10.0 02:05:51 18° SSW 02:12:31 38° SSE 02:25:27 10° E visible
04 Jul 10.2 00:17:56 18° SE 00:18:47 18° SE 00:25:35 10° E visible
04 Jul 10.0 02:19:02 16° SW 02:26:21 42° SSE 02:39:45 10° E visible
